Weather Service Report


880 
ASUS44 KOUN 272210
RWROK 

WEATHER ROUNDUP FOR OKLAHOMA
NATIONAL WEATHER SERVICE NORMAN OK
500 PM CDT MON MAR 27 2017

NOTE: "FAIR" INDICATES FEW OR NO CLOUDS BELOW 12,000 FEET WITH NO
      SIGNIFICANT WEATHER AND/OR OBSTRUCTIONS TO VISIBILITY.

OKZ001>007-009>012-014-015-017-272300-
NORTHWEST OKLAHOMA AND THE PANHANDLE
  
CITY           SKY/WX    TMP DP  RH WIND       PRES   REMARKS
GAGE           SUNNY     70  39  32 CALM      29.87F                  
GUYMON         SUNNY     68  35  29 S7G17     29.85F                  
$$

OKZ016-021>023-033>039-044-045-272300-
SOUTHWEST OKLAHOMA
  
CITY           SKY/WX    TMP DP  RH WIND       PRES   REMARKS
LAWTON/REGL    SUNNY     72  47  40 VRB3      29.88F                  
LAWTON/FT SILL SUNNY     71  49  45 N5        29.86F                  
FREDERICK      SUNNY     73  46  38 CALM      29.84F                  
CLINTON        SUNNY     69  44  40 VRB5      29.89F                  
HOBART         SUNNY     71  47  42 E7        29.88F                  
ALTUS AFB      SUNNY     71  44  37 CALM      29.87F                  
$$

OKZ018>020-024>031-272300-
CENTRAL OKLAHOMA
  
CITY           SKY/WX    TMP DP  RH WIND       PRES   REMARKS
OKLAHOMA CITY  MOSUNNY   69  46  43 N6        29.89F                  
OKC/WILEY POST SUNNY     68  48  48 N8        29.90F                  
OKC/TINKER AFB SUNNY     69  46  44 NW7       29.88F                  
STILLWATER     SUNNY     65  47  52 N7        29.91F                  
GUTHRIE        SUNNY     69  47  45 VRB3      29.90S                  
$$

OKZ008-013-054>072-272300-
NORTHEAST OKLAHOMA
  
CITY           SKY/WX    TMP DP  RH WIND       PRES   REMARKS
TULSA          PTSUNNY   64  50  60 N9        29.89F                  
TULSA/JONES    CLOUDY    65  49  56 N9        29.89F                  
PONCA CITY     CLOUDY    57  46  66 N10       29.93S                  
BARTLESVILLE   CLOUDY    60  47  61 N7        29.93F                  
MUSKOGEE       CLOUDY    64  51  62 N13       29.92S                  
$$

OKZ032-040>043-046>053-073>077-272300-
SOUTH CENTRAL/SOUTHEAST OKLAHOMA
  
CITY           SKY/WX    TMP DP  RH WIND       PRES   REMARKS
ARDMORE/DWNTWN SUNNY     72  45  37 CALM      29.86F                  
MCALESTER      CLOUDY    70  51  51 N9        29.88F                  
$$

  

Return to Home page


Western Regional Climate Center, wrcc@dri.edu